User: anonymous   Login
Location: Moscow
(55.7500°N, 37.5830°E)
Time: 21:47:54
(UTC+03:00)
Language:

A-11 Canister half - Orbit

View from above orbital plane
View from above orbital plane
View from above satellite
View from above satellite

Ground track
Ground track

The orbit data is extracted from the following two-line orbital elements,

1    53U 60009E   21334.50896277 -.00000153  00000-0 -67244-3 0  9997
2    53  47.2781  61.2773 0100466 210.1265 149.3719 12.17266084733250
Epoch (UTC): 30 November 2021 12:12:54
Eccentricity: 0.0100466
inclination: 47.2781°
perigee height: 1524 km
apogee height: 1684 km
right ascension of ascending node: 61.2773°
argument of perigee: 210.1265°
revolutions per day: 12.17266084
mean anomaly at epoch: 149.3719°
orbit number at epoch: 73325

The dashed part of the orbit path shows where the satellite is in the earth's shadow,  

DLR